Weather History for Mena, AR

Change the Weather History Date:

Sunday, December 9, 2012

  Actual Average (KFSM) Record (KFSM)
Temperature  
Mean Temperature 60 °F -  
Max Temperature 75 °F 51 °F 75 °F (1940)
Min Temperature 46 °F 32 °F 2 °F (1917)
Degree Days  
Heating Degree Days 4    
Growing Degree Days 10 (Base 50)    
Moisture  
Dew Point 57 °F    
Average Humidity 80    
Maximum Humidity 100    
Minimum Humidity 53    
Precipitation  
Precipitation 0.60 in - - ()
Sea Level Pressure  
Sea Level Pressure 29.82 in    
Wind  
Wind Speed 6 mph (West)    
Max Wind Speed 15 mph    
Max Gust Speed 23 mph    
Visibility 7 miles    
Events Rain , Thunderstorm    
Averages and records for this station are not official NWS values.
T = Trace of Precipitation, MM = Missing Value Source: NWS Daily Summary

Daily Weather History Graph

Daily Weather History Graph

Search for Another Location

Airport:

Trip Planner

Search our weather history database for the weather conditions in past years. The results will help you decide how hot, cold, wet, or windy it might be!

Date:

Astronomy

Dec. 09, 2012 Rise Set
Actual Time 7:12 AM CST 5:06 PM CST
Civil Twilight 6:44 AM CST 5:34 PM CST
Nautical Twilight 6:13 AM CST 6:05 PM CST
Astronomical Twilight 5:42 AM CST 6:36 PM CST
Moon 2:53 AM CST (12/9) 2:07 PM CST (12/9)
Length of Visible Light 10h 49m
Length of Day
9h 54m
Waning Crescent, 18% of the Moon is Illuminated
Dec 9
Waning Crescent
Dec 13
New
Dec 19
First Quarter
Dec 28
Full
Jan 4
Last Quarter

Hourly Weather History & Observations

Time (CST) Temp. Windchill Dew Point Humidity Pressure Visibility Wind Dir Wind Speed Gust Speed Precip Events Conditions
12:15 AM 66.2 °F - 62.6 °F 88% 29.83 in 7.0 mi Calm Calm - N/A Thunderstorm Mostly Cloudy
12:35 AM 64.4 °F - 62.6 °F 94% 29.82 in 7.0 mi West 3.5 mph - N/A   Mostly Cloudy
1:15 AM 62.6 °F - 62.6 °F 100% 29.81 in 5.0 mi Calm Calm - N/A Thunderstorm Mostly Cloudy
1:35 AM 62.6 °F - 62.6 °F 100% 29.80 in 4.0 mi Calm Calm - N/A Thunderstorm Overcast
1:55 AM 64.4 °F - 64.4 °F 100% 29.79 in 2.0 mi SW 8.1 mph - 0.08 in Rain , Thunderstorm Heavy Thunderstorms and Rain
2:15 AM 64.4 °F - 64.4 °F 100% 29.80 in 5.0 mi WSW 6.9 mph - 0.15 in Rain , Thunderstorm Heavy Thunderstorms and Rain
2:35 AM 64.4 °F - 62.6 °F 94% 29.79 in 7.0 mi WSW 6.9 mph - 0.29 in Rain , Thunderstorm Light Thunderstorms and Rain
2:55 AM 66.2 °F - 64.4 °F 94% 29.80 in 10.0 mi SW 4.6 mph - 0.38 in Thunderstorm Mostly Cloudy
3:15 AM 68.0 °F - 66.2 °F 94% 29.80 in 7.0 mi WSW 6.9 mph - 0.06 in   Overcast
3:35 AM 64.4 °F - 64.4 °F 100% 29.80 in 7.0 mi Calm Calm - 0.12 in   Overcast
3:55 AM 68.0 °F - 68.0 °F 100% 29.80 in 5.0 mi SW 6.9 mph - 0.12 in   Overcast
4:15 AM 68.0 °F - 68.0 °F 100% 29.80 in 5.0 mi SW 5.8 mph - N/A   Overcast
4:35 AM 68.0 °F - 68.0 °F 100% 29.79 in 5.0 mi South 4.6 mph - N/A   Overcast
4:55 AM 68.0 °F - 68.0 °F 100% 29.80 in 5.0 mi SW 6.9 mph - N/A   Overcast
5:15 AM 68.0 °F - 68.0 °F 100% 29.80 in 4.0 mi SSW 6.9 mph - N/A   Overcast
5:35 AM 68.0 °F - 68.0 °F 100% 29.80 in 3.0 mi SW 6.9 mph - N/A Rain Rain
5:55 AM 68.0 °F - 68.0 °F 100% 29.80 in 3.0 mi SW 9.2 mph - N/A   Light Drizzle
6:35 AM 68.0 °F - 68.0 °F 100% 29.81 in 3.0 mi SW 5.8 mph - N/A   Light Drizzle
6:55 AM 68.0 °F - 68.0 °F 100% 29.81 in 3.0 mi SW 6.9 mph 20.7 mph N/A   Overcast
7:15 AM 68.0 °F - 68.0 °F 100% 29.81 in 2.5 mi SSW 5.8 mph - N/A Rain Light Rain
7:35 AM 68.0 °F - 68.0 °F 100% 29.81 in 3.0 mi SSW 8.1 mph - N/A   Light Drizzle
7:55 AM 68.0 °F - 68.0 °F 100% 29.81 in 3.0 mi SW 9.2 mph - N/A Rain Light Rain
8:15 AM 68.0 °F - 68.0 °F 100% 29.81 in 4.0 mi SW 6.9 mph - N/A   Overcast
8:35 AM 68.0 °F - 68.0 °F 100% 29.81 in 5.0 mi SW 8.1 mph - N/A Rain Light Rain
8:55 AM 68.0 °F - 68.0 °F 100% 29.81 in 5.0 mi SW 5.8 mph - 0.02 in Rain Light Rain
9:15 AM 69.8 °F - 68.0 °F 94% 29.81 in 5.0 mi SW 8.1 mph - N/A   Overcast
9:35 AM 69.8 °F - 68.0 °F 94% 29.82 in 5.0 mi SW 8.1 mph - N/A   Overcast
9:55 AM 71.6 °F - 68.0 °F 88% 29.82 in 7.0 mi SSW 8.1 mph - N/A   Overcast
10:15 AM 71.6 °F - 68.0 °F 88% 29.82 in 7.0 mi SSW 8.1 mph - N/A   Overcast
10:35 AM 71.6 °F - 64.4 °F 78% 29.81 in 7.0 mi SSW 8.1 mph 19.6 mph N/A   Mostly Cloudy
10:55 AM 71.6 °F - 62.6 °F 73% 29.81 in 7.0 mi SSW 9.2 mph - N/A   Mostly Cloudy
11:15 AM 73.4 °F - 62.6 °F 69% 29.80 in 7.0 mi SSW 6.9 mph - N/A   Mostly Cloudy
11:35 AM 73.4 °F - 62.6 °F 69% 29.79 in 7.0 mi SW 11.5 mph 18.4 mph N/A   Mostly Cloudy
11:55 AM 73.4 °F - 62.6 °F 69% 29.79 in 7.0 mi West 12.7 mph 18.4 mph N/A   Mostly Cloudy
12:15 PM 71.6 °F - 60.8 °F 69% 29.78 in 10.0 mi WSW 9.2 mph 17.3 mph N/A   Overcast
12:35 PM 73.4 °F - 60.8 °F 65% 29.77 in 10.0 mi WSW 6.9 mph 17.3 mph N/A   Scattered Clouds
12:55 PM 75.2 °F - 57.2 °F 53% 29.76 in 10.0 mi WSW 10.4 mph 18.4 mph N/A   Clear
1:15 PM 73.4 °F - 55.4 °F 53% 29.75 in 10.0 mi SW 10.4 mph 19.6 mph N/A   Clear
1:35 PM 73.4 °F - 55.4 °F 53% 29.76 in 10.0 mi SW 10.4 mph 18.4 mph N/A   Clear
1:55 PM 75.2 °F - 57.2 °F 53% 29.75 in 10.0 mi WSW 11.5 mph - N/A   Clear
2:15 PM 75.2 °F - 59.0 °F 57% 29.76 in 10.0 mi West 9.2 mph 18.4 mph N/A   Mostly Cloudy
2:35 PM 73.4 °F - 59.0 °F 61% 29.76 in 10.0 mi West 8.1 mph - N/A   Mostly Cloudy
3:15 PM 68.0 °F - 55.4 °F 64% 29.78 in 10.0 mi WNW 13.8 mph - N/A   Mostly Cloudy
3:35 PM 68.0 °F - 53.6 °F 60% 29.80 in 7.0 mi WNW 15.0 mph - N/A   Scattered Clouds
4:15 PM 62.6 °F - 51.8 °F 68% 29.82 in 7.0 mi West 15.0 mph 19.6 mph N/A   Clear
4:35 PM 60.8 °F - 51.8 °F 72% 29.82 in 5.0 mi West 12.7 mph 17.3 mph N/A   Haze
4:55 PM 60.8 °F - 50.0 °F 68% 29.83 in 7.0 mi West 9.2 mph - N/A   Scattered Clouds
5:15 PM 59.0 °F - 50.0 °F 72% 29.83 in 7.0 mi Calm Calm - N/A   Overcast
5:35 PM 59.0 °F - 48.2 °F 67% 29.84 in 7.0 mi WNW 10.4 mph - N/A   Overcast
5:55 PM 57.2 °F - 48.2 °F 72% 29.85 in 7.0 mi NNW 3.5 mph - N/A   Overcast
6:15 PM 55.4 °F - 46.4 °F 72% 29.86 in 7.0 mi North 3.5 mph - N/A   Overcast
6:35 PM 55.4 °F - 46.4 °F 72% 29.86 in 10.0 mi NNW 6.9 mph - N/A   Overcast
6:55 PM 53.6 °F - 44.6 °F 72% 29.87 in 7.0 mi North 10.4 mph 16.1 mph N/A   Overcast
7:15 PM 51.8 °F - 44.6 °F 76% 29.88 in 7.0 mi North 12.7 mph 17.3 mph N/A   Scattered Clouds
7:35 PM 51.8 °F - 44.6 °F 76% 29.88 in 10.0 mi NNW 10.4 mph 23.0 mph N/A   Clear
7:55 PM 51.8 °F - 42.8 °F 71% 29.88 in 10.0 mi NNW 9.2 mph 17.3 mph N/A   Clear
8:15 PM 51.8 °F - 42.8 °F 71% 29.89 in 10.0 mi NNW 8.1 mph 16.1 mph N/A   Clear
8:35 PM 51.8 °F - 42.8 °F 71% 29.89 in 10.0 mi NNW 5.8 mph - N/A   Clear
8:55 PM 51.8 °F - 42.8 °F 71% 29.90 in 10.0 mi NNW 5.8 mph - N/A   Mostly Cloudy
9:15 PM 51.8 °F - 42.8 °F 71% 29.90 in 10.0 mi NNW 8.1 mph - N/A   Overcast
9:35 PM 51.8 °F - 42.8 °F 71% 29.90 in 10.0 mi North 4.6 mph - N/A   Overcast
9:55 PM 50.0 °F - 41.0 °F 71% 29.90 in 10.0 mi North 6.9 mph - N/A   Scattered Clouds
10:15 PM 50.0 °F - 41.0 °F 71% 29.91 in 10.0 mi North 6.9 mph - N/A   Scattered Clouds
10:35 PM 50.0 °F - 41.0 °F 71% 29.91 in 10.0 mi NNW 8.1 mph - N/A   Mostly Cloudy
11:15 PM 48.2 °F - 35.6 °F 62% 29.92 in 10.0 mi NNW 9.2 mph 17.3 mph N/A   Mostly Cloudy
11:35 PM 46.4 °F 40.4 °F 33.8 °F 62% 29.93 in 10.0 mi NW 13.8 mph 18.4 mph N/A   Mostly Cloudy
11:55 PM 46.4 °F 41.5 °F 32.0 °F 57% 29.94 in 10.0 mi NW 10.4 mph 17.3 mph N/A   Overcast